Location: Croisilles
(50.1998°N, 2.8793°E)
Time: 13:37:33
(UTC+00:00)

ATLAS 5 CENTAUR R/B - Pass Details

Date: 21 January 2021
Orbit: 511 x 1147 km, 63.3° (Epoch: 16 February)

Event Time Altitude Azimuth Distance (km) Brightness Sun altitude
Rises 20:06:35 0° 291° (WNW) 2,847 6.0 -35.1°
Reaches altitude 10° 20:09:21 10° 310° (NW) 2,039 4.8 -35.6°
Enters shadow 20:10:37 15° 325° (NW) 1,787 4.3 -35.8°
